User: anonymous   Login
Location: Ravensburg
(47.7866°N, 9.6124°E)
Time: 21:26:01
(UTC+01:00)
Language:

SEEDS - Orbit

View from above orbital plane
View from above orbital plane
View from above satellite
View from above satellite

Ground track
Ground track

The orbit is defined by the following mean orbital elements,

1 32791U          26074.94099818 +.00000000 +00000-0 +61755-3 0 00009
2 32791  97.7513  68.6327 0000583 315.1203  44.9989 15.29374329    07
Epoch (UTC): 15 March 2026 22:35:02
Eccentricity: 0.0000583
inclination: 97.7513°
perigee height: 477 km
apogee height: 478 km
right ascension of ascending node: 68.6327°
argument of perigee: 315.1203°
revolutions per day: 15.29374329
mean anomaly at epoch: 44.9989°

The dashed part of the orbit path shows where the satellite is in the earth's shadow,  

DLR